Regional Weather Roundup
Issued by NWS Northern Indiana

Home | Current Version | Previous Version | Text Only | Print | Product List | Glossary On
Versions: 1 2 3 4 5 6 7 8 9 10 11 12 13 14 15 16 17 18 19 20 21 22 23 24 25 26 27 28 29 30 31 32 33 34 35 36 37 38 39 40 41 42 43 44 45 46 47 48 49 50
656
ASUS43 KIWX 310200
RWRIWX

KIWX WEATHER ROUNDUP
NATIONAL WEATHER SERVICE NORTHERN INDIANA
1000 PM EDT MON MAY 30 2016

NOTE: "FAIR" INDICATES FEW OR NO CLOUDS BELOW 12,000 FEET WITH NO
SIGNIFICANT WEATHER AND/OR OBSTRUCTIONS TO VISIBILITY.

* THESE STATIONS ARE NOT UNDER NWS QUALITY CONTROL. THEY ALSO MAY NOT
  REPORT WEATHER SUCH AS PRECIPITATION OR FOG.

INZ001>027-310300-
NORTHERN INDIANA

CITY           SKY/WX    TMP DP  RH WIND       PRES   REMARKS
GARY*          MOCLDY    72  63  73 E8        29.97S
SOUTH BEND     CLOUDY    70  56  61 N5        29.98S
GOSHEN         CLOUDY    68  53  58 NE6       29.98R
ANGOLA*          N/A     68  59  73 CALM      30.00R
FORT WAYNE     MOCLDY    75  52  44 N5        29.98R

$$
INZ028>050-310300-
CENTRAL INDIANA

CITY           SKY/WX    TMP DP  RH WIND       PRES   REMARKS
LAFAYETTE      PTCLDY    73  59  61 W3        29.96R
KOKOMO*        PTCLDY    75  54  46 W5        29.97R
MUNCIE*        PTCLDY    79  54  41 SW3       29.98R
INDIANAPOLIS   CLOUDY    74  58  57 SW7       29.97S

$$
MIZ043>046-050>051-056>058-064>065-071>073-077>080-310300-
SOUTHWEST LOWER MICHIGAN

CITY           SKY/WX    TMP DP  RH WIND       PRES   REMARKS
BATTLE CREEK   CLEAR     69  56  62 W5        30.00R
BENTON HARBOR  CLEAR     69  57  65 CALM      29.98S
COLDWATER*     CLEAR     70  52  53 CALM      29.99S
HILLSDALE*     CLEAR     71  46  41 CALM      30.01R
HOLLAND        CLEAR     67  57  70 NW3       30.00S
GRAND RAPIDS   PTCLDY    72  54  53 NW7       29.99S
KALAMAZOO      CLEAR     72  55  55 N6        29.99R
STURGIS*       CLOUDY    68  55  62 CALM      29.99R
THREE RIVERS*  FAIR      71  55  55 CALM      30.00R

$$
OHZ001>008-015>018-024>025-310300-
NORTHWEST OHIO

CITY           SKY/WX    TMP DP  RH WIND       PRES   REMARKS
DEFIANCE       CLEAR     73  58  59 NW5       29.98R
FINDLAY        CLEAR     79  50  36 NW5       29.96R
TOLEDO EXPRESS CLEAR     69  54  58 CALM      29.97R
TOLEDO METCALF CLEAR     76  51  41 CALM      29.97R
LIMA           PTCLDY    73  58  59 CALM      29.98R

$$
AND FOR LAKE MICHIGAN COASTAL AND OPEN LAKE BUOY OBSERVATIONS

STATION/POSITION TEMP    WIND        PRES    VSBY  WAVE
                 AIR SEA DIR/SP/G                  HT/PER
                 (F)     (DEG/KT/KT) (MB)    (MI)  (FT/S)
CALUMET HARBOR                       1014.3
MICHIGAN CITY     69      40/ 12/ 12   N/A
BURNS HARBOR      67      80/ 10/ 12 1015.2R
SAINT JOSEPH      74      20/  3/  7 1015.2F
SOUTH LAKE BUOY   61 58   90/  4/  6 1015.2          0
4 MI NW BRIDGMAN  68 65   20/  8/ 10   N/A           1
MICHIGAN CITY     65 62   70/  6/  6   N/A           0

$$
&&




USA.gov is the U.S. government's official web portal to all federal, state and local government web resources and services.